This is the latest recevied weather packets stored in our database for station/object K9MWD. If no packets are shown the sender has not sent any weather packets the latest 10 day(s).
| Time | Temp. | Humidity | Pressure | Rain* | Wind** | Luminosity | Snow |
|---|---|---|---|---|---|---|---|
| 1777225376 | 26.67° C | 78% | 1008.9 hPa | 0 mm | - | 468 W/m² | - |
| 1777225072 | 26.11° C | 79% | 1009.2 hPa | 0 mm | - | 380 W/m² | - |
| 1777224769 | 26.11° C | 78% | 1008.9 hPa | 0 mm | - | 321 W/m² | - |
| 1777224465 | 26.11° C | 78% | 1009.3 hPa | 0 mm | - | 294 W/m² | - |
| 1777224161 | 26.11° C | 79% | 1009.3 hPa | 0 mm | - | 264 W/m² | - |
| 1777223857 | 26.11° C | 79% | 1009.4 hPa | 0 mm | - | 250 W/m² | - |
| 1777223554 | 26.11° C | 79% | 1009.4 hPa | 0 mm | - | 273 W/m² | - |
| 1777223252 | 26.11° C | 79% | 1009.5 hPa | 0 mm | - | 271 W/m² | - |
| 1777222949 | 26.11° C | 79% | 1009.4 hPa | 0 mm | - | 278 W/m² | - |
| 1777222646 | 26.11° C | 78% | 1009.6 hPa | 0 mm | - | 436 W/m² | - |
| 1777222343 | 26.11° C | 79% | 1009.6 hPa | 0 mm | - | 382 W/m² | - |
| 1777222042 | 26.11° C | 78% | 1009.7 hPa | 0 mm | - | 319 W/m² | - |
| 1777221737 | 26.11° C | 78% | 1009.7 hPa | 0 mm | - | 355 W/m² | - |
| 1777221434 | 25.56° C | 78% | 1009.7 hPa | 0 mm | - | 280 W/m² | - |
| 1777221132 | 25.56° C | 80% | 1009.7 hPa | 0 mm | - | 230 W/m² | - |
| 1777220827 | 25.56° C | 80% | 1009.6 hPa | 0 mm | - | 206 W/m² | - |
| 1777220522 | 26.11° C | 80% | 1009.8 hPa | 0 mm | - | 280 W/m² | - |
| 1777220218 | 25.56° C | 81% | 1009.8 hPa | 0 mm | - | 363 W/m² | - |
| 1777219914 | 25.56° C | 80% | 1009.7 hPa | 0 mm | - | 316 W/m² | - |
| 1777219611 | 25.56° C | 80% | 1009.5 hPa | 0 mm | - | 441 W/m² | - |
| 1777219308 | 25.56° C | 81% | 1009.5 hPa | 0 mm | - | 404 W/m² | - |
| 1777219004 | 25° C | 82% | 1009.5 hPa | 0 mm | - | 328 W/m² | - |
| 1777218700 | 25.56° C | 80% | 1009.4 hPa | 0 mm | - | 379 W/m² | - |
| 1777218396 | 25° C | 82% | 1009.4 hPa | 0 mm | - | 574 W/m² | - |
| 1777218092 | 25° C | 83% | 1009.5 hPa | 0 mm | - | 539 W/m² | - |
* Rain latest hour (hover to see other rain measurements)
** Current wind speed in m/s (hover to see current wind gust speed)